This demonstration page uses our WeatherBlox Daily Observations layout. Learn more.

Left ArrowRight Arrow

39.95238, -75.16362

Hourly Observations for August 4, 2022

Temp ( °F °C ) Dew Point ( °F °C ) Humidity (%) Winds ( mph kmh ) Pressure ( in mb ) Visibility ( mi km ) Precip ( " mm )
12:54 am 00:54 Clear 79 26.1 68 20 69 69 SSW 7 11 30.04 1017 10 16 0.00 0.00
1:54 am 01:54 Clear 78 25.6 69 20.6 74 74 SSW 5 7 30.02 1017 10 16 0.00 0.00
2:54 am 02:54 Clear 77 25 70 21.1 79 79 W 5 7 30.03 1017 10 16 0.00 0.00
3:54 am 03:54 Clear 77 25 71 21.7 82 82 Calm 30.03 1017 10 16 0.00 0.00
4:54 am 04:54 Clear 76 24.4 71 21.7 85 85 S 3 6 30.03 1017 10 16 0.00 0.00
5:54 am 05:54 Clear 76 24.4 71 21.7 85 85 S 3 6 30.04 1017 10 16 0.00 0.00
6:54 am 06:54 Mostly Sunny 77 25 72 22.2 85 85 SSW 5 7 30.06 1018 10 16 0.00 0.00
7:54 am 07:54 Mostly Sunny 79 26.1 72 22.2 79 79 S 3 6 30.07 1018 10 16 0.00 0.00
8:54 am 08:54 Sunny 83 28.3 73 22.8 72 72 SSW 5 7 30.07 1018 10 16 0.00 0.00
9:54 am 09:54 Sunny 86 30 74 23.3 67 67 WSW 5 7 30.06 1018 10 16 0.00 0.00
10:54 am 10:54 Sunny 90 32.2 71 21.7 54 54 SSW 13 20 30.06 1018 10 16 0.00 0.00
11:54 am 11:54 Mostly Sunny 92 33.3 71 21.7 51 51 SW 12 19 30.06 1018 10 16 0.00 0.00
12:54 pm 12:54 Mostly Sunny 93 33.9 72 22.2 50 50 SSW 12 19 30.05 1018 10 16 0.00 0.00
1:54 pm 13:54 Mostly Sunny 95 35 72 22.2 47 47 WSW 12 19 30.04 1017 10 16 0.00 0.00
2:54 pm 14:54 Mostly Sunny 95 35 72 22.2 47 47 SW 14 22 30.02 1017 10 16 0.00 0.00
3:54 pm 15:54 Mostly Sunny 96 35.6 71 21.7 44 44 SSW 13 20 30.01 1016 10 16 0.00 0.00
4:54 pm 16:54 Partly Cloudy 97 36.1 71 21.7 43 43 SSW 12 19 30.01 1016 10 16 0.00 0.00
5:54 pm 17:54 Partly Cloudy 96 35.6 71 21.7 44 44 SW 10 17 30.01 1016 10 16 0.00 0.00
6:54 pm 18:54 Partly Cloudy 94 34.4 72 22.2 49 49 SW 12 19 30.01 1016 10 16 0.00 0.00
7:54 pm 19:54 Partly Cloudy 92 33.3 74 23.3 56 56 SSW 8 13 30.03 1017 10 16 0.00 0.00
8:33 pm 20:33 Mostly Cloudy with Thunderstorms 92 33.3 66 18.9 43 43 W 25 41 30.09 1019 10 16 0.00 0.00
8:38 pm 20:38 Mostly Cloudy with Thunderstorms 87 30.6 66 18.9 50 50 WNW 24 39 30.09 1019 10 16 0.00 0.00
8:46 pm 20:46 Cloudy with Thunderstorms 84 28.9 68 20 59 59 WNW 18 30 30.09 1019 4 6 0.00 0.00
8:54 pm 20:54 Cloudy with Strong Thunderstorms 80 26.7 71 21.7 74 74 NW 14 22 30.08 1019 3 5 0.02 0.51
9:01 pm 21:01 Cloudy with Thunderstorms 79 26.1 72 22.2 79 79 NW 9 15 30.08 1019 10 16 0.02 0.51
9:10 pm 21:10 Mostly Cloudy 80 26.7 72 22.2 76 76 WNW 10 17 30.09 1019 10 16 0.02 0.51
9:54 pm 21:54 Cloudy with Light Rain 79 26.1 73 22.8 82 82 SSW 7 11 30.09 1019 10 16 0.02 0.51
10:18 pm 22:18 Cloudy with Light Rain 77 25 72 22.2 85 85 SW 14 22 30.12 1020 6 10 0.00 0.00
10:42 pm 22:42 Cloudy with Light Rain 76 24.4 72 22.2 88 88 SW 13 20 30.12 1020 7 11 0.01 0.25
10:54 pm 22:54 Cloudy with Light Rain 76 24.4 72 22.2 88 88 SW 12 19 30.12 1020 7 11 0.02 0.51
11:54 pm 23:54 Cloudy with Light Rain 76 24.4 72 22.2 88 88 SW 8 13 30.11 1020 9 14 0.03 0.76

Powered by AerisWeather